TimeEDT,TemperatureF,Dew PointF,Humidity,Sea Level PressureIn,VisibilityMPH,Wind Direction,Wind SpeedMPH,Gust SpeedMPH,PrecipitationIn,Events,Conditions,WindDirDegrees,DateUTC
12:53 AM,81.0,75.0,82,30.01,10.0,WSW,3.5,-,N/A,,Clear,250,2013-06-13 04:53:00
1:53 AM,79.0,75.0,88,30.00,8.0,West,3.5,-,N/A,,Clear,260,2013-06-13 05:53:00
2:45 AM,78.8,75.2,89,29.99,7.0,West,3.5,-,N/A,,Partly Cloudy,260,2013-06-13 06:45:00
2:53 AM,78.1,75.0,90,29.99,6.0,West,3.5,-,N/A,,Scattered Clouds,270,2013-06-13 06:53:00
3:04 AM,78.8,75.2,89,29.99,6.0,WNW,3.5,-,N/A,,Mostly Cloudy,290,2013-06-13 07:04:00
3:34 AM,78.8,75.2,89,29.99,6.0,West,4.6,-,N/A,,Scattered Clouds,260,2013-06-13 07:34:00
3:53 AM,78.1,75.0,90,29.98,6.0,SW,3.5,-,N/A,,Partly Cloudy,230,2013-06-13 07:53:00
4:53 AM,78.1,75.0,90,29.98,6.0,Calm,Calm,-,N/A,,Clear,0,2013-06-13 08:53:00
5:38 AM,78.8,75.2,89,29.98,6.0,Calm,Calm,-,N/A,,Partly Cloudy,0,2013-06-13 09:38:00
5:53 AM,78.1,75.0,90,29.98,6.0,West,3.5,-,N/A,,Mostly Cloudy,270,2013-06-13 09:53:00
6:09 AM,78.8,75.2,89,29.98,6.0,West,3.5,-,N/A,,Scattered Clouds,270,2013-06-13 10:09:00
6:53 AM,78.1,75.0,90,30.00,5.0,Calm,Calm,-,N/A,,Partly Cloudy,0,2013-06-13 10:53:00
7:53 AM,79.0,75.0,88,30.00,6.0,Calm,Calm,-,N/A,,Clear,0,2013-06-13 11:53:00
8:53 AM,84.0,73.9,72,30.01,10.0,NW,9.2,-,N/A,,Clear,310,2013-06-13 12:53:00
9:53 AM,87.1,73.0,63,30.01,10.0,WNW,5.8,-,N/A,,Clear,290,2013-06-13 13:53:00
10:53 AM,90.0,73.0,57,30.00,10.0,WNW,6.9,-,N/A,,Clear,290,2013-06-13 14:53:00
11:53 AM,91.9,71.1,50,29.99,10.0,West,6.9,-,N/A,,Scattered Clouds,270,2013-06-13 15:53:00
12:53 PM,96.1,69.1,41,29.97,10.0,West,10.4,16.1,N/A,,Scattered Clouds,280,2013-06-13 16:53:00
1:53 PM,95.0,68.0,41,29.95,10.0,WSW,6.9,-,N/A,,Mostly Cloudy,250,2013-06-13 17:53:00
2:53 PM,97.0,66.9,37,29.92,10.0,WNW,8.1,-,N/A,,Scattered Clouds,290,2013-06-13 18:53:00
3:53 PM,96.1,66.9,38,29.90,10.0,NNW,10.4,16.1,N/A,,Scattered Clouds,330,2013-06-13 19:53:00
4:53 PM,97.0,66.9,37,29.88,10.0,NW,6.9,-,N/A,,Mostly Cloudy,310,2013-06-13 20:53:00
5:53 PM,93.9,71.1,47,29.86,10.0,WNW,12.7,-,N/A,,Mostly Cloudy,290,2013-06-13 21:53:00
6:53 PM,91.9,73.0,54,29.85,10.0,West,15.0,-,N/A,,Mostly Cloudy,280,2013-06-13 22:53:00
7:36 PM,91.4,69.8,49,29.86,10.0,WSW,12.7,-,N/A,Thunderstorm,Thunderstorm,250,2013-06-13 23:36:00
7:53 PM,91.0,70.0,50,29.86,10.0,West,11.5,-,N/A,Thunderstorm,Thunderstorm,260,2013-06-13 23:53:00
8:28 PM,89.6,69.8,52,29.87,10.0,WSW,10.4,-,N/A,,Mostly Cloudy,240,2013-06-14 00:28:00
8:53 PM,87.1,70.0,57,29.88,10.0,WSW,10.4,-,N/A,,Scattered Clouds,250,2013-06-14 00:53:00
9:53 PM,84.9,72.0,65,29.88,10.0,West,11.5,18.4,N/A,,Partly Cloudy,260,2013-06-14 01:53:00
10:53 PM,82.9,73.0,72,29.90,10.0,SSW,5.8,-,N/A,,Clear,210,2013-06-14 02:53:00
11:53 PM,81.0,73.0,77,29.91,10.0,WSW,4.6,-,N/A,,Clear,240,2013-06-14 03:53:00